Burbank, CA

5:23 PM PDT on March 25, 2017 (GMT -0700)
Burbank-Glendale-Pasadena

Weather History for KBUR - October, 2012

Change the Weather History Date:

Sunday, October 21, 2012

  Actual Average Record
Temperature  
Mean Temperature 68 °F 66 °F  
Max Temperature 73 °F 79 °F 101 °F (2003)
Min Temperature 63 °F 53 °F 41 °F (1949)
Degree Days  
Heating Degree Days 0 2  
Month to date heating degree days 8 23  
Since 1 July heating degree days 8 29  
Cooling Degree Days 3 3  
Month to date cooling degree days 152 82  
Year to date cooling degree days 1607 1213  
Growing Degree Days 17 (Base 50)    
Moisture  
Dew Point 57 °F    
Average Humidity 71    
Maximum Humidity 84    
Minimum Humidity 57    
Precipitation  
Precipitation T in 0.03 in 0.44 in (1941)
Month to date precipitation 0.12 0.60  
Year to date precipitation 5.60 13.47  
Since 1 July precipitation 0.12  
Sea Level Pressure  
Sea Level Pressure 29.86 in    
Wind  
Wind Speed 6 mph (SSE)    
Max Wind Speed 13 mph    
Max Gust Speed 17 mph    
Visibility 10 miles    
Events Rain    
T = Trace of Precipitation, MM = Missing Value Source: NWS Daily Summary

Daily Weather History Graph

Daily Weather History Graph

Search for Another Location

Airport or City:

Trip Planner

Search our weather history database for the weather conditions in past years. The results will help you decide how hot, cold, wet, or windy it might be!

Date:

Astronomy

Oct. 21, 2012 Rise Set
Actual Time 7:04 AM PDT 6:11 PM PDT
Civil Twilight 6:38 AM PDT 6:36 PM PDT
Nautical Twilight 6:09 AM PDT 7:05 PM PDT
Astronomical Twilight 5:40 AM PDT 7:35 PM PDT
Moon 1:23 PM PDT (10/21) No Moon Set
Length of Visible Light 11h 58m
Length of Day
11h 07m
Waxing Crescent, 46% of the Moon is Illuminated
Oct 21
Waxing Crescent
Oct 21
First Quarter
Oct 29
Full
Nov 6
Last Quarter
Nov 13
New

Hourly Weather History & Observations

Time (PDT) Temp. Dew Point Humidity Pressure Visibility Wind Dir Wind Speed Gust Speed Precip Events Conditions
12:30 AM 64.4 °F 57.2 °F 77% 29.88 in 10.0 mi SSE 4.6 mph - N/A   Overcast
12:53 AM 64.9 °F 57.9 °F 78% 29.85 in 10.0 mi South 6.9 mph - 0.00 in Rain Light Rain
1:53 AM 64.0 °F 57.9 °F 80% 29.85 in 10.0 mi South 3.5 mph - 0.00 in   Overcast
2:25 AM 64.4 °F 57.2 °F 77% 29.88 in 10.0 mi South 6.9 mph - N/A   Overcast
2:53 AM 64.0 °F 57.9 °F 80% 29.84 in 10.0 mi South 5.8 mph - N/A   Overcast
3:18 AM 64.4 °F 57.2 °F 77% 29.87 in 10.0 mi SSE 4.6 mph - 0.00 in   Overcast
3:53 AM 64.0 °F 57.9 °F 80% 29.83 in 10.0 mi ESE 5.8 mph - 0.00 in   Overcast
4:45 AM 64.4 °F 57.2 °F 77% 29.86 in 10.0 mi ESE 6.9 mph - N/A   Overcast
4:53 AM 64.0 °F 57.9 °F 80% 29.83 in 10.0 mi ESE 5.8 mph - N/A   Overcast
5:01 AM 64.4 °F 57.2 °F 77% 29.86 in 10.0 mi ESE 5.8 mph - N/A   Overcast
5:53 AM 64.0 °F 57.0 °F 78% 29.84 in 10.0 mi ESE 5.8 mph - N/A   Overcast
6:02 AM 64.4 °F 57.2 °F 77% 29.87 in 10.0 mi SE 5.8 mph - N/A   Overcast
6:53 AM 63.0 °F 57.0 °F 81% 29.85 in 10.0 mi SE 5.8 mph - N/A   Overcast
7:53 AM 64.0 °F 57.0 °F 78% 29.87 in 10.0 mi Calm Calm - N/A   Overcast
8:53 AM 63.0 °F 57.0 °F 81% 29.89 in 10.0 mi Calm Calm - N/A   Overcast
9:53 AM 66.0 °F 57.0 °F 73% 29.89 in 10.0 mi SE 5.8 mph - N/A   Mostly Cloudy
10:53 AM 66.9 °F 55.9 °F 68% 29.88 in 10.0 mi ESE 6.9 mph - N/A   Mostly Cloudy
11:53 AM 69.1 °F 55.9 °F 63% 29.88 in 10.0 mi South 9.2 mph - N/A   Overcast
12:53 PM 71.1 °F 55.0 °F 57% 29.86 in 10.0 mi SSE 9.2 mph - N/A   Mostly Cloudy
1:53 PM 72.0 °F 55.0 °F 55% 29.83 in 10.0 mi SE 9.2 mph - N/A   Mostly Cloudy
2:53 PM 72.0 °F 55.9 °F 57% 29.82 in 10.0 mi South 11.5 mph - N/A   Mostly Cloudy
3:53 PM 70.0 °F 57.0 °F 63% 29.82 in 10.0 mi South 11.5 mph - N/A   Overcast
4:53 PM 70.0 °F 57.0 °F 63% 29.83 in 10.0 mi South 9.2 mph - N/A   Overcast
5:53 PM 68.0 °F 55.9 °F 65% 29.84 in 10.0 mi SSW 8.1 mph - N/A   Scattered Clouds
6:53 PM 64.9 °F 55.9 °F 73% 29.85 in 10.0 mi South 6.9 mph - N/A   Scattered Clouds
7:53 PM 64.0 °F 57.0 °F 78% 29.86 in 10.0 mi SSE 4.6 mph - N/A   Scattered Clouds
8:53 PM 63.0 °F 57.0 °F 81% 29.88 in 10.0 mi South 5.8 mph - N/A   Partly Cloudy
9:15 PM 62.6 °F 57.2 °F 82% 29.91 in 10.0 mi South 5.8 mph - N/A   Mostly Cloudy
9:29 PM 62.6 °F 57.2 °F 82% 29.91 in 10.0 mi SSW 4.6 mph - N/A   Overcast
9:53 PM 63.0 °F 55.9 °F 78% 29.89 in 10.0 mi SSW 4.6 mph - N/A   Overcast
10:53 PM 63.0 °F 55.9 °F 78% 29.90 in 10.0 mi South 5.8 mph - N/A   Overcast
11:53 PM 63.0 °F 55.9 °F 78% 29.89 in 10.0 mi South 3.5 mph - N/A   Overcast